sat.trackr.live / text

‹ back to catalog

ONEWEB-0142

NORAD 47288 · 2020-100AG

PAYLOAD ACTIVE UNKNOWN

§ Identity

Operator
Country
UK
Launch date
2020-12-18
Launch site
VOSTO
Launch vehicle
Mass (kg)
RCS (m²)

Purposes: comms

External: N2YO · Heavens-Above · Gunter

§ Orbital elements

Epoch: 2026-09-20T03:32:34.325664Z

Period
109.72 min
Inclination
87.8984°
Eccentricity
0.0001465
Mean motion
13.12442184 rev/d
Perigee alt
1,212.6 km
Apogee alt
1,214.8 km
Semi-major
7,591.9 km
B*
-9.3407e-4
RAAN
331.8146°
Arg perigee
106.6379°
Mean anomaly
253.4910°
Rev number
27,712

§ Raw data

ONEWEB-01421 47288U 20100AG  26263.14761951 -.00000323  00000+0 -93407-3 0  99902 47288  87.8984 331.8146 0001465 106.6379 253.4910 13.12442184277122

JSON: /api/v1/satellites/47288 · /tle

For live sub-satellite position, see the globe view (requires WebGL).

§ Visibility from observer

Set your observer location to see the next 7 days of passes ≥ 10°. The values pass through the URL so the page stays shareable.

No JS? Fill the form by hand. The geolocation button needs JavaScript.